FW1340 Weather Reports


Display with metric or nautical units.
time (UTC)temp
F
wind
direction
speed
MPH
gust
MPH
rain 1hr
in
rain 24hr
in
rain mn
in
humidity
%
barometer
mb
20260509083053 57 271 0.0 0.0 0.00 0.00 0.00 84 1014.5
20260509081546 58 271 0.0 0.0 0.00 0.00 0.00 83 1014.6
20260509080103 58 271 0.0 0.0 0.00 0.00 0.00 83 1014.6
20260509074543 58 271 0.0 0.0 0.00 0.00 0.00 83 1014.6
20260509073040 59 271 0.0 0.0 0.00 0.00 0.00 81 1014.7
20260509071537 59 271 0.0 0.0 0.00 0.00 0.00 80 1014.6
20260509070038 60 271 0.0 0.0 0.00 0.00 0.00 80 1014.5
20260509064534 60 271 0.0 0.0 0.00 0.00 0.00 79 1014.6
20260509063034 61 271 0.0 0.0 0.00 0.00 0.00 77 1014.6
20260509061535 61 271 0.0 0.0 0.00 0.00 0.00 77 1014.5
20260509060034 62 232 0.0 0.0 0.00 0.00 0.00 77 1014.6
20260509054532 62 248 0.0 0.0 0.00 0.00 0.00 76 1014.5
20260509053040 63 271 0.0 0.0 0.00 0.00 0.00 75 1014.5
20260509051533 64 265 0.0 0.0 0.00 0.00 0.00 74 1014.4
20260509050047 64 242 0.0 0.0 0.00 0.00 0.00 73 1014.3
20260509044534 65 281 0.0 0.0 0.00 0.00 0.00 74 1014.2
20260509043039 66 245 0.0 0.0 0.00 0.00 0.00 72 1014.1
20260509041530 66 246 0.0 0.0 0.00 0.00 0.00 70 1014.0
20260509040029 67 259 0.0 0.0 0.00 0.00 0.00 69 1013.9
20260509034528 68 252 0.0 0.0 0.00 0.00 0.00 68 1013.9
20260509033036 69 265 0.0 0.0 0.00 0.00 0.00 68 1013.8
20260509031531 70 223 0.0 0.0 0.00 0.00 0.00 67 1013.7
20260509030029 71 259 0.0 0.0 0.00 0.00 0.00 66 1013.6
20260509024529 73 263 0.0 0.0 0.00 0.00 0.00 64 1013.5
20260509023026 75 238 0.0 0.0 0.00 0.00 0.00 62 1013.4
20260509021525 76 269 0.0 0.0 0.00 0.00 0.00 58 1013.5
20260509020023 78 263 0.0 0.0 0.00 0.00 0.00 55 1013.4
20260509014526 79 249 0.0 0.0 0.00 0.00 0.00 55 1013.6
20260509013022 80 246 0.0 0.0 0.00 0.00 0.00 54 1013.6
20260509011522 81 256 0.0 0.0 0.00 0.00 0.00 51 1013.6
20260509010020 82 273 0.0 0.0 0.00 0.00 0.00 50 1013.6
20260509004519 83 316 0.0 0.0 0.00 0.00 0.00 50 1013.7
20260509003017 83 321 0.0 0.0 0.00 0.00 0.00 50 1013.8
20260509001515 83 234 0.0 0.0 0.00 0.00 0.00 50 1013.9
20260509000028 83 251 0.0 0.0 0.00 0.00 0.00 51 1014.0
20260508234512 82 274 0.0 0.0 0.00 0.00 0.00 52 1014.2
20260508233009 83 246 0.0 0.0 0.00 0.00 0.00 51 1014.3
20260508231507 83 238 0.0 0.0 0.00 0.00 0.00 51 1014.6
20260508230005 83 311 0.0 0.0 0.00 0.00 0.00 51 1014.7
20260508224502 82 294 0.0 0.0 0.00 0.00 0.00 52 1014.9
20260508223059 82 277 0.0 0.0 0.00 0.00 0.00 53 1015.1
20260508221609 82 252 0.0 0.0 0.00 0.00 0.00 55 1015.4
20260508220053 81 241 0.0 0.0 0.00 0.00 0.00 53 1015.6
20260508214552 81 326 0.0 0.0 0.00 0.00 0.00 54 1015.7
20260508213048 81 286 0.0 0.0 0.00 0.00 0.00 53 1015.9
20260508211549 80 256 0.0 0.0 0.00 0.00 0.00 53 1016.2
20260508210044 80 307 0.0 0.0 0.00 0.00 0.00 53 1016.4
20260508204542 78 263 0.0 0.0 0.00 0.00 0.00 55 1016.5
20260508203038 78 277 0.0 0.0 0.00 0.00 0.00 54 1016.6
20260508201540 77 252 0.0 0.0 0.00 0.00 0.00 54 1016.7
20260508200042 76 242 0.0 0.0 0.00 0.00 0.00 57 1016.8
20260508194529 76 325 0.0 0.0 0.00 0.00 0.00 58 1017.0
20260508193026 74 254 0.0 0.0 0.00 0.00 0.00 59 1017.2
20260508191524 74 214 0.0 0.0 0.00 0.00 0.00 60 1017.3
20260508190021 73 323 0.0 0.0 0.00 0.00 0.00 61 1017.4
20260508184525 73 341 0.0 0.0 0.00 0.00 0.00 62 1017.5
20260508183013 71 324 0.0 0.0 0.00 0.00 0.00 63 1017.7
20260508181510 70 264 0.0 0.0 0.00 0.00 0.00 64 1017.8
20260508180005 69 287 0.0 0.0 0.00 0.00 0.00 64 1017.7
20260508174502 68 333 0.0 0.0 0.00 0.00 0.00 66 1017.8
20260508173109 67 300 0.0 0.0 0.00 0.00 0.00 67 1017.9
20260508171558 66 290 0.0 0.0 0.00 0.00 0.00 69 1018.1
20260508170054 65 251 0.0 0.0 0.00 0.00 0.00 69 1018.0
20260508164550 63 255 0.0 0.0 0.00 0.00 0.00 73 1017.9
20260508163048 62 261 0.0 0.0 0.00 0.00 0.00 75 1018.0
20260508161542 61 246 0.0 0.0 0.00 0.00 0.00 77 1018.0
20260508160039 60 233 0.0 0.0 0.00 0.00 0.00 79 1018.1
20260508154532 59 241 0.0 0.0 0.00 0.00 0.00 82 1018.2
20260508153028 58 254 0.0 0.0 0.00 0.00 0.00 82 1018.2
20260508151523 57 271 0.0 0.0 0.00 0.00 0.00 84 1018.1
20260508150022 56 273 0.0 0.0 0.00 0.00 0.00 86 1018.2
20260508144533 55 271 0.0 0.0 0.00 0.00 0.00 89 1017.9
20260508143024 54 273 0.0 0.0 0.00 0.00 0.00 91 1017.8
20260508141515 53 271 0.0 0.0 0.00 0.00 0.00 92 1017.6
20260508140004 53 294 0.0 0.0 0.00 0.00 0.00 92 1017.5
20260508134601 52 256 0.0 0.0 0.00 0.00 0.00 92 1017.3
20260508133055 52 258 0.0 0.0 0.00 0.00 0.00 92 1017.2
20260508131557 51 255 0.0 0.0 0.00 0.00 0.00 92 1017.3
20260508130048 51 259 0.0 0.0 0.00 0.00 0.00 92 1017.3
20260508124548 51 268 0.0 0.0 0.00 0.00 0.00 92 1017.2
20260508123046 51 284 0.0 0.0 0.00 0.00 0.00 92 1017.2
20260508121547 52 275 0.0 0.0 0.00 0.00 0.00 92 1017.1
20260508120042 52 271 0.0 0.0 0.00 0.00 0.00 92 1016.9
20260508114540 52 258 0.0 0.0 0.00 0.00 0.00 91 1017.0
20260508113103 52 261 0.0 0.0 0.00 0.00 0.00 91 1016.9
20260508111537 53 275 0.0 0.0 0.00 0.00 0.00 91 1016.8
20260508110035 53 273 0.0 0.0 0.00 0.00 0.00 91 1016.8
20260508104542 53 281 0.0 0.0 0.00 0.00 0.00 90 1016.7
20260508103031 53 270 0.0 0.0 0.00 0.00 0.00 90 1016.6
20260508101536 54 261 0.0 0.0 0.00 0.00 0.00 90 1016.7
20260508100035 54 281 0.0 0.0 0.00 0.00 0.00 90 1016.7
20260508094527 54 282 0.0 0.0 0.00 0.00 0.00 90 1016.6
20260508093026 54 261 0.0 0.0 0.00 0.00 0.00 91 1016.6
20260508091527 54 268 0.0 0.0 0.00 0.00 0.00 90 1016.5
20260508090025 55 288 0.0 0.0 0.00 0.00 0.00 90 1016.5
20260508084520 55 246 0.0 0.0 0.00 0.00 0.00 90 1016.5